EW4405 Weather Reports


time (UTC)temp
C
wind
direction
speed
KPH
gust
KPH
rain 1hr
cm
rain 24hr
cm
rain mn
cm
humidity
%
barometer
mb
20260506213231 30 161 3.2 8.0 0.00 0.00 0.00 72 1007.5
20260506212721 30 198 1.6 8.0 0.00 0.00 0.00 72 1007.6
20260506212216 30 198 1.6 8.0 0.00 0.00 0.00 73 1007.7
20260506211709 30 184 1.6 6.4 0.00 0.00 0.00 74 1007.7
20260506211642 30 185 1.6 6.4 0.00 0.00 0.00 74 1007.7
20260506210917 30 201 3.2 6.4 0.00 0.00 0.00 74 1007.8
20260506210148 30 199 3.2 11.3 0.00 0.00 0.00 73 1007.9
20260506205647 30 199 3.2 11.3 0.00 0.00 0.00 72 1007.8
20260506205411 30 219 3.2 11.3 0.00 0.00 0.00 72 1007.9
20260506204647 30 186 3.2 8.0 0.00 0.00 0.00 74 1007.9
20260506204144 30 201 1.6 8.0 0.00 0.00 0.00 74 1008.0
20260506203911 30 180 1.6 6.4 0.00 0.00 0.00 73 1007.9
20260506203413 30 193 1.6 8.0 0.00 0.00 0.00 74 1007.9
20260506202644 30 196 3.2 9.7 0.00 0.00 0.00 74 1007.9
20260506202407 30 205 3.2 9.7 0.00 0.00 0.00 73 1008.0
20260506201644 30 225 3.2 9.7 0.00 0.00 0.00 73 1008.3
20260506201142 30 212 4.8 14.5 0.00 0.00 0.00 73 1008.3
20260506200645 30 162 6.4 14.5 0.00 0.00 0.00 74 1008.3
20260506200141 30 221 6.4 12.9 0.00 0.00 0.00 74 1008.3
20260506195639 30 197 4.8 12.9 0.00 0.00 0.00 74 1008.3
20260506195131 30 198 4.8 14.5 0.00 0.00 0.00 74 1008.4
20260506194632 30 209 4.8 14.5 0.00 0.00 0.00 74 1008.4
20260506194132 29 205 4.8 14.5 0.00 0.00 0.00 75 1008.5
20260506193634 29 191 4.8 14.5 0.00 0.00 0.00 74 1008.5
20260506193132 30 187 4.8 14.5 0.00 0.00 0.00 74 1008.6
20260506192632 29 189 4.8 14.5 0.00 0.00 0.00 74 1008.6
20260506192131 29 196 4.8 11.3 0.00 0.00 0.00 75 1008.6
20260506191635 29 201 4.8 11.3 0.00 0.00 0.00 76 1008.7
20260506191134 29 205 4.8 11.3 0.00 0.00 0.00 75 1008.7
20260506190629 29 163 4.8 11.3 0.00 0.00 0.00 75 1008.8
20260506190129 29 205 4.8 11.3 0.00 0.00 0.00 74 1008.9
20260506185630 30 149 4.8 11.3 0.00 0.00 0.00 74 1009.0
20260506185128 29 227 3.2 11.3 0.00 0.00 0.00 74 1008.9
20260506184629 29 210 3.2 11.3 0.00 0.00 0.00 75 1009.0
20260506184407 29 194 3.2 11.3 0.00 0.00 0.00 75 1009.1
20260506183901 29 200 1.6 9.7 0.00 0.00 0.00 74 1009.2
20260506183129 29 196 3.2 8.0 0.00 0.00 0.00 76 1009.2
20260506182704 29 165 3.2 8.0 0.00 0.00 0.00 75 1009.3
20260506182348 29 211 3.2 9.7 0.00 0.00 0.00 75 1009.3
20260506181626 29 221 3.2 9.7 0.00 0.00 0.00 75 1009.5
20260506181124 29 206 3.2 11.3 0.00 0.00 0.00 75 1009.6
20260506180625 29 170 3.2 11.3 0.00 0.00 0.00 76 1009.6
20260506180124 29 184 3.2 11.3 0.00 0.00 0.00 76 1009.7
20260506175625 29 188 3.2 9.7 0.00 0.00 0.00 76 1009.8
20260506175125 29 207 1.6 8.0 0.00 0.00 0.00 76 1009.9
20260506174620 28 209 1.6 8.0 0.00 0.00 0.00 77 1009.8
20260506174122 28 190 1.6 4.8 0.00 0.00 0.00 77 1010.0
20260506173843 28 183 1.6 6.4 0.00 0.00 0.00 78 1010.0
20260506173118 28 187 3.2 9.7 0.00 0.00 0.00 77 1010.1
20260506172618 28 167 3.2 9.7 0.00 0.00 0.00 77 1010.2
20260506172116 28 174 1.6 6.4 0.00 0.00 0.00 78 1010.2
20260506171843 28 173 1.6 6.4 0.00 0.00 0.00 78 1010.2
20260506171111 28 179 1.6 6.4 0.00 0.00 0.00 79 1010.3
20260506170839 27 180 1.6 8.0 0.00 0.00 0.00 79 1010.4
20260506170110 27 202 1.6 8.0 0.00 0.00 0.00 80 1010.4
20260506165609 27 192 1.6 8.0 0.00 0.00 0.00 80 1010.3
20260506165108 27 181 1.6 8.0 0.00 0.00 0.00 80 1010.4
20260506164608 27 182 3.2 8.0 0.00 0.00 0.00 81 1010.4
20260506164102 27 181 3.2 8.0 0.00 0.00 0.00 81 1010.4
20260506163550 26 178 3.2 8.0 0.00 0.00 0.00 82 1010.3
20260506163044 26 192 1.6 8.0 0.00 0.00 0.00 82 1010.2
20260506162538 26 185 1.6 9.7 0.00 0.00 0.00 81 1010.2
20260506162028 26 185 1.6 9.7 0.00 0.00 0.00 81 1010.1
20260506161522 26 176 3.2 8.0 0.00 0.00 0.00 81 1010.1
20260506161016 26 161 3.2 8.0 0.00 0.00 0.00 82 1010.1
20260506160508 26 179 3.2 11.3 0.00 0.00 0.00 82 1009.9
20260506160000 26 185 3.2 11.3 0.00 0.00 0.00 82 1010.0
20260506155453 26 179 1.6 9.7 0.00 0.00 0.00 82 1010.0
20260506154942 26 170 1.6 4.8 0.00 0.00 0.00 82 1010.0
20260506154439 26 174 1.6 6.4 0.00 0.00 0.00 82 1010.1
20260506153932 26 175 1.6 9.7 0.00 0.00 0.00 82 1010.1
20260506153422 26 173 1.6 9.7 0.00 0.00 0.00 82 1010.1
20260506152915 26 163 1.6 11.3 0.00 0.00 0.00 82 1009.8
20260506152408 26 181 3.2 11.3 0.00 0.00 0.00 82 1009.6
20260506151900 26 174 1.6 8.0 0.00 0.00 0.00 82 1009.5
20260506151352 26 175 1.6 6.4 0.00 0.00 0.00 82 1009.6
20260506150846 26 169 1.6 8.0 0.00 0.00 0.00 82 1009.6
20260506150339 26 169 1.6 8.0 0.00 0.00 0.00 82 1009.5
20260506145831 26 168 1.6 6.4 0.00 0.00 0.00 82 1009.5
20260506145325 26 173 1.6 8.0 0.00 0.00 0.00 82 1009.3
20260506145301 26 176 3.2 8.0 0.00 0.00 0.00 82 1009.2
20260506144309 26 190 3.2 12.9 0.00 0.00 0.00 83 1009.1
20260506144027 26 172 3.2 12.9 0.00 0.00 0.00 83 1009.0
20260506143252 26 171 1.6 9.7 0.00 0.00 0.00 83 1008.9
20260506142748 26 178 1.6 9.7 0.00 0.00 0.00 84 1008.8
20260506142249 25 184 1.6 8.0 0.00 0.00 0.00 84 1009.0
20260506141743 25 181 1.6 4.8 0.00 0.00 0.00 84 1009.0
20260506141243 25 180 1.6 6.4 0.00 0.00 0.00 85 1009.1
20260506141009 25 180 1.6 8.0 0.00 0.00 0.00 85 1009.1
20260506140245 25 179 1.6 8.0 0.00 0.00 0.00 85 1009.2
20260506135744 25 173 1.6 4.8 0.00 0.00 0.00 86 1009.2
20260506135245 25 176 1.6 8.0 0.00 0.00 0.00 86 1009.2
20260506134744 25 174 1.6 8.0 0.00 0.00 0.00 87 1009.2
20260506134247 25 176 1.6 6.4 0.00 0.00 0.00 87 1009.2
20260506133745 25 173 0.0 4.8 0.00 0.00 0.00 87 1009.2
20260506133243 25 173 0.0 4.8 0.00 0.00 0.00 88 1009.3
20260506132743 25 173 0.0 4.8 0.00 0.00 0.00 88 1009.3
20260506132512 24 172 0.0 6.4 0.00 0.00 0.00 88 1009.3
20260506131744 24 173 0.0 6.4 0.00 0.00 0.00 88 1009.3
20260506131240 24 171 0.0 3.2 0.00 0.00 0.00 88 1009.4
20260506130732 24 171 0.0 4.8 0.00 0.00 0.00 88 1009.3
20260506130229 24 171 0.0 4.8 0.00 0.00 0.00 88 1009.3
20260506125948 24 172 0.0 4.8 0.00 0.00 0.00 88 1009.2
20260506125448 24 173 0.0 4.8 0.00 0.00 0.00 88 1009.2
20260506124726 24 173 0.0 4.8 0.00 0.00 0.00 88 1009.3
20260506124224 24 173 1.6 4.8 0.00 0.00 0.00 88 1009.3
20260506123721 24 173 1.6 4.8 0.00 0.00 0.00 88 1009.3
20260506123438 24 170 1.6 6.4 0.00 0.00 0.00 88 1009.0
20260506123321 24 170 1.6 4.8 0.00 0.00 0.00 88 1009.2
20260506122219 24 170 1.6 6.4 0.00 0.00 0.00 88 1008.9
20260506121718 24 169 1.6 8.0 0.00 0.00 0.00 88 1009.0
20260506121218 24 169 1.6 8.0 0.00 0.00 0.00 88 1009.0
20260506120716 24 171 0.0 4.8 0.00 0.00 0.00 88 1008.9
20260506120217 23 171 0.0 6.4 0.00 0.00 0.00 88 1008.9
20260506115714 23 171 1.6 6.4 0.00 0.00 0.00 88 1008.8
20260506115214 23 174 1.6 4.8 0.00 0.00 0.00 88 1008.7
20260506114714 23 175 1.6 4.8 0.00 0.00 0.00 88 1008.7
20260506114438 23 174 1.6 4.8 0.00 0.00 0.00 88 1008.5
20260506113703 23 174 1.6 4.8 0.00 0.00 0.00 88 1008.5
20260506113205 23 171 1.6 4.8 0.00 0.00 0.00 88 1008.5
20260506112703 23 172 1.6 6.4 0.00 0.00 0.00 88 1008.5
20260506112201 23 172 1.6 6.4 0.00 0.00 0.00 88 1008.4
20260506111701 23 173 1.6 6.4 0.00 0.00 0.00 88 1008.3
20260506111157 23 175 1.6 8.0 0.00 0.00 0.00 88 1008.1
20260506110921 23 169 1.6 8.0 0.00 0.00 0.00 88 1008.1
20260506110157 23 173 1.6 6.4 0.00 0.00 0.00 88 1008.1
20260506105658 23 163 1.6 6.4 0.00 0.00 0.00 87 1008.0
20260506105154 23 163 1.6 6.4 0.00 0.00 0.00 87 1008.1
20260506104653 23 160 0.0 4.8 0.00 0.00 0.00 87 1008.1
20260506104151 23 159 0.0 4.8 0.00 0.00 0.00 87 1008.1
20260506103913 23 159 0.0 4.8 0.00 0.00 0.00 87 1008.3
20260506103148 23 159 0.0 4.8 0.00 0.00 0.00 87 1008.3
20260506102648 23 159 0.0 3.2 0.00 0.00 0.00 87 1008.1
20260506102148 23 159 0.0 3.2 0.00 0.00 0.00 87 1008.0
20260506101648 23 159 1.6 3.2 0.00 0.00 0.00 87 1008.0
20260506101143 23 159 0.0 3.2 0.00 0.00 0.00 87 1008.0
20260506100641 23 158 0.0 3.2 0.00 0.00 0.00 87 1007.9
20260506100404 23 157 0.0 1.6 0.00 0.00 0.00 87 1008.0
20260506095640 23 157 0.0 1.6 0.00 0.00 0.00 87 1008.1
20260506095627 23 157 0.0 3.2 0.00 0.00 0.00 87 1008.0
20260506094640 23 157 0.0 3.2 0.00 0.00 0.00 87 1007.9
20260506094139 23 157 0.0 0.0 0.00 0.00 0.00 87 1007.9
20260506093640 23 157 0.0 4.8 0.00 0.00 0.00 86 1007.9
20260506093404 23 157 0.0 4.8 0.00 0.00 0.00 86 1007.8
20260506092637 23 157 0.0 3.2 0.00 0.00 0.00 86 1007.8
20260506092136 23 157 0.0 4.8 0.00 0.00 0.00 86 1007.8
20260506091636 23 157 0.0 4.8 0.00 0.00 0.00 86 1008.0
20260506091137 24 156 0.0 3.2 0.00 0.00 0.00 86 1008.1
20260506090637 24 156 0.0 3.2 0.00 0.00 0.00 86 1008.1
20260506090137 24 156 0.0 1.6 0.00 0.00 0.00 86 1008.0
20260506085639 24 156 0.0 6.4 0.00 0.00 0.00 86 1007.9
20260506085138 24 156 1.6 6.4 0.00 0.00 0.00 86 1008.0
20260506084638 24 174 1.6 6.4 0.00 0.00 0.00 86 1008.0
20260506084139 24 173 0.0 4.8 0.00 0.00 0.00 86 1008.1
20260506083638 24 172 1.6 4.8 0.00 0.00 0.00 86 1008.1
20260506083137 24 172 1.6 4.8 0.00 0.00 0.00 86 1008.1
20260506082640 24 173 1.6 4.8 0.00 0.00 0.00 86 1008.3
20260506082136 24 173 1.6 6.4 0.00 0.00 0.00 86 1008.3
20260506081638 24 173 1.6 8.0 0.00 0.00 0.00 86 1008.4
20260506081135 24 213 1.6 8.0 0.00 0.00 0.00 86 1008.3
20260506080632 24 175 1.6 6.4 0.00 0.00 0.00 86 1008.3
20260506080133 24 177 1.6 6.4 0.00 0.00 0.00 85 1008.3
20260506073120 25 168 1.6 6.4 0.00 0.00 0.00 85 1008.6
20260506072848 25 167 1.6 6.4 0.00 0.00 0.00 85 1008.6
20260506072338 25 175 1.6 4.8 0.00 0.00 0.00 85 1008.7
20260506071618 25 175 1.6 6.4 0.00 0.00 0.00 85 1008.7
20260506071111 25 175 1.6 6.4 0.00 0.00 0.00 85 1008.8
20260506070601 25 175 1.6 8.0 0.00 0.00 0.00 85 1009.0
20260506061955 25 175 1.6 8.0 0.00 0.00 0.00 85 1009.1
20260506061454 25 176 1.6 8.0 0.00 0.00 0.00 85 1009.1
20260506060951 25 184 1.6 8.0 0.00 0.00 0.00 85 1009.1
20260506060453 25 184 1.6 8.0 0.00 0.00 0.00 85 1009.0
20260506050948 25 168 1.6 6.4 0.00 0.00 0.00 85 1009.0
20260506050445 25 166 1.6 8.0 0.00 0.00 0.00 84 1009.0
20260506044934 25 192 1.6 8.0 0.00 0.00 0.00 84 1009.1
20260506044434 25 175 0.0 6.4 0.00 0.00 0.00 84 1009.0
20260506044157 25 174 0.0 6.4 0.00 0.00 0.00 84 1009.1
20260506043651 25 174 1.6 6.4 0.00 0.00 0.00 84 1009.0
20260506042933 25 170 1.6 6.4 0.00 0.00 0.00 84 1008.9
20260506042433 25 173 1.6 8.0 0.00 0.00 0.00 84 1009.0
20260506041936 25 173 1.6 8.0 0.00 0.00 0.00 84 1009.0
20260506041432 25 151 1.6 8.0 0.00 0.00 0.00 84 1008.9
20260506040935 25 163 1.6 6.4 0.00 0.00 0.00 84 1008.8
20260506040433 25 164 3.2 11.3 0.00 0.00 0.00 84 1008.8
20260506035934 25 158 3.2 11.3 0.00 0.00 0.00 84 1008.8
20260506035433 25 171 1.6 11.3 0.00 0.00 0.00 84 1008.7
20260506034935 25 171 1.6 11.3 0.00 0.00 0.00 83 1008.7
20260506034433 25 175 1.6 9.7 0.00 0.00 0.00 83 1008.6
20260506033934 25 181 1.6 9.7 0.00 0.00 0.00 83 1008.5
20260506033428 25 166 3.2 12.9 0.00 0.00 0.00 83 1008.5
20260506032930 25 178 3.2 14.5 0.00 0.00 0.00 83 1008.5
20260506032431 25 169 4.8 14.5 0.00 0.00 0.00 82 1008.5
20260506031928 25 189 4.8 12.9 0.00 0.00 0.00 82 1008.4
20260506031430 25 190 3.2 9.7 0.00 0.00 0.00 82 1008.4
20260506030928 25 171 3.2 12.9 0.00 0.00 0.00 82 1008.3
20260506030426 25 181 3.2 12.9 0.00 0.00 0.00 82 1008.3
20260506025924 25 205 3.2 11.3 0.00 0.00 0.00 82 1008.3
20260506025421 25 189 3.2 11.3 0.00 0.00 0.00 82 1008.3
20260506024922 25 183 1.6 8.0 0.00 0.00 0.00 81 1008.1
20260506024421 25 192 3.2 11.3 0.00 0.00 0.00 81 1008.1
20260506023921 25 215 3.2 11.3 0.00 0.00 0.00 81 1008.0
20260506023420 25 150 3.2 11.3 0.00 0.00 0.00 81 1007.9
20260506023134 25 178 4.8 11.3 0.00 0.00 0.00 81 1007.9
20260506022623 25 175 4.8 11.3 0.00 0.00 0.00 81 1007.8
20260506021857 25 169 4.8 11.3 0.00 0.00 0.00 81 1007.7
20260506021348 25 214 3.2 8.0 0.00 0.00 0.00 81 1007.7
20260506020842 25 169 3.2 12.9 0.00 0.00 0.00 81 1007.7
20260506020336 26 200 3.2 12.9 0.00 0.00 0.00 81 1007.6
20260506015826 26 175 3.2 12.9 0.00 0.00 0.00 81 1007.5
20260506015319 26 174 3.2 12.9 0.00 0.00 0.00 81 1007.4
20260506014814 26 197 3.2 14.5 0.00 0.00 0.00 80 1007.3
20260506014304 26 202 4.8 14.5 0.00 0.00 0.00 80 1007.2
20260506013758 26 181 4.8 11.3 0.00 0.00 0.00 80 1007.1
20260506013251 26 206 4.8 11.3 0.00 0.00 0.00 80 1007.0
20260506012741 26 205 4.8 11.3 0.00 0.00 0.00 80 1006.9
20260506012235 26 217 4.8 11.3 0.00 0.00 0.00 80 1007.0
20260506011958 26 175 3.2 11.3 0.00 0.00 0.00 79 1006.9
20260506011219 26 195 3.2 8.0 0.00 0.00 0.00 79 1006.8
20260506010714 26 190 3.2 11.3 0.00 0.00 0.00 79 1006.8
20260506010207 26 164 4.8 16.1 0.00 0.00 0.00 79 1006.8
20260506005658 26 203 4.8 16.1 0.00 0.00 0.00 78 1006.7
20260506005155 26 198 4.8 14.5 0.00 0.00 0.00 78 1006.6
20260506004653 26 132 4.8 14.5 0.00 0.00 0.00 78 1006.5
20260506004412 26 196 4.8 16.1 0.00 0.00 0.00 78 1006.5
20260506003652 26 187 6.4 16.1 0.00 0.00 0.00 78 1006.5
20260506003153 26 192 6.4 16.1 0.00 0.00 0.00 78 1006.5
20260506002653 26 165 6.4 22.5 0.00 0.00 0.00 78 1006.4
20260506002153 26 186 4.8 22.5 0.00 0.00 0.00 78 1006.4
20260506001654 26 190 4.8 11.3 0.00 0.00 0.00 78 1006.5
20260506001152 26 184 4.8 17.7 0.00 0.00 0.00 77 1006.4
20260506000653 26 186 8.0 19.3 0.00 0.00 0.00 77 1006.4
20260506000148 26 165 6.4 19.3 0.00 0.00 0.00 77 1006.4
20260505235649 26 229 6.4 16.1 0.00 0.00 0.00 77 1006.4
20260505235411 27 186 6.4 16.1 0.00 0.00 0.00 76 1006.3
20260505234648 27 219 4.8 16.1 0.00 0.00 0.00 76 1006.4
20260505234149 27 178 3.2 11.3 0.00 0.00 0.00 76 1006.5
20260505233649 27 169 3.2 12.9 0.00 0.00 0.00 76 1006.4
20260505233151 27 194 4.8 16.1 0.00 0.00 0.00 76 1006.4
20260505232651 27 157 4.8 16.1 0.00 0.00 0.00 76 1006.3
20260505232146 27 157 6.4 12.9 0.00 0.00 0.00 76 1006.4
20260505231647 27 227 6.4 19.3 0.00 0.00 0.00 75 1006.5
20260505231149 27 209 6.4 19.3 0.00 0.00 0.00 75 1006.4
20260505230648 27 146 4.8 17.7 0.00 0.00 0.00 75 1006.4
20260505230411 27 196 4.8 12.9 0.00 0.00 0.00 75 1006.4
20260505225920 27 201 6.4 16.1 0.00 0.00 0.00 75 1006.4
20260505225143 27 194 6.4 16.1 0.00 0.00 0.00 74 1006.5
20260505224643 27 178 4.8 16.1 0.00 0.00 0.00 74 1006.5
20260505224144 27 174 6.4 16.1 0.00 0.00 0.00 75 1006.6
20260505223643 27 201 6.4 17.7 0.00 0.00 0.00 74 1006.5
20260505223143 28 188 6.4 17.7 0.00 0.00 0.00 74 1006.5
20260505222641 28 167 8.0 17.7 0.00 0.00 0.00 74 1006.5
20260505222136 28 175 8.0 17.7 0.00 0.00 0.00 73 1006.5
20260505221629 28 185 6.4 14.5 0.00 0.00 0.00 72 1006.5
20260505221128 28 209 6.4 16.1 0.00 0.00 0.00 73 1006.7
20260505220628 28 220 6.4 16.1 0.00 0.00 0.00 72 1006.7
20260505220129 28 176 6.4 17.7 0.00 0.00 0.00 74 1006.7
20260505215628 28 0 8.0 17.7 0.00 0.00 0.00 74 1006.7
20260505215127 28 193 8.0 17.7 0.00 0.00 0.00 73 1006.7
20260505214849 28 238 8.0 22.5 0.00 0.00 0.00 73 1006.7
20260505214126 28 175 8.0 22.5 0.00 0.00 0.00 73 1006.8
20260505213624 28 223 6.4 16.1 0.00 0.00 0.00 73 1007.0